Hourly Data Report for September 16, 2017

All times are specified in Local Standard Time (LST). Add 1 hour to adjust for Daylight Saving Time where and when it is observed.

PENTICTON A
BRITISH COLUMBIA

49°27'45.000" N
119°36'08.000" W
344.40 m
1126146
71889
YYF

Download Data

Hourly Data (September 2017)
Hourly Data Report for September 16, 2017
Temp Definition
°C
Dew Point Temp Definition
°C
Rel Hum Definition
%
Wind Dir Definition
10's deg

Wind Spd Definition
km/h
Visibility Definition
km
Stn Press Definition
kPa
Hmdx Definition


Wind Chill Definition


Weather Definition


TIME
00:00 Legend Double Dagger 7.2 -2.7 49 3 5 24.1 97.75     LegendNANA
01:00 Legend Double Dagger 5.0 -2.7 58 4 6 24.1 97.78     Clear
02:00 Legend Double Dagger 6.9 -1.8 54 1 13 24.1 97.78     LegendNANA
03:00 Legend Double Dagger 8.0 -1.6 51 33 6 24.1 97.78     LegendNANA
04:00 Legend Double Dagger 13.4 1.1 43 18 19 24.1 97.79     Clear
05:00 Legend Double Dagger 13.9 0.6 40 18 21 24.1 97.80     LegendNANA
06:00 Legend Double Dagger 13.7 1.1 42 16 17 24.1 97.84     LegendNANA
07:00 Legend Double Dagger 13.6 1.1 42 15 23 24.1 97.87     Mostly Cloudy
08:00 Legend Double Dagger 14.8 2.0 42 16 24 24.1 97.87     LegendNANA
09:00
10:00 Legend Double Dagger 17.4 2.5 37 16 29 16.1 97.78     Mainly Clear
11:00 Legend Double Dagger 18.3 2.0 33 17 31 19.3 97.72     LegendNANA
12:00 Legend Double Dagger 19.0 2.0 32 18 26 24.1 97.64     LegendNANA
13:00 Legend Double Dagger 19.9 3.0 32 17 29 19.3 97.54     Mainly Clear
14:00 Legend Double Dagger 20.4 2.8 31 17 32 19.3 97.44     LegendNANA
15:00 Legend Double Dagger 20.0 2.0 30 17 35 19.3 97.39     LegendNANA
16:00 Legend Double Dagger 19.4 2.3 32 18 32 19.3 97.33     Mostly Cloudy
17:00 Legend Double Dagger 19.3 2.1 32 19 35 19.3 97.29     LegendNANA
18:00 Legend Double Dagger 18.9 1.1 30 20 28 19.3 97.26     LegendNANA
19:00 Legend Double Dagger 18.2 1.1 31 18 37 16.1 97.27     Mostly Cloudy
20:00 Legend Double Dagger 17.7 0.6 31 19 25 16.1 97.27     LegendNANA
21:00 Legend Double Dagger 17.3 0.3 31 20 21 16.1 97.28     LegendNANA
22:00 Legend Double Dagger 16.8 0.0 32 18 18 16.1 97.29     Mostly Cloudy
23:00 Legend Double Dagger 15.8 1.1 37 17 7 24.1 97.28     LegendNANA

Notes on Data Quality.

Legend

  • E = Estimated
  • M = Missing
  • NA = Not Available
  • ‡ = Partner data that is not subject to review by the National Climate Archives
Date modified: